TimeEDT,TemperatureF,Dew PointF,Humidity,Sea Level PressureIn,VisibilityMPH,Wind Direction,Wind SpeedMPH,Gust SpeedMPH,PrecipitationIn,Events,Conditions,WindDirDegrees,DateUTC
12:58 AM,65.3,61.2,86,30.07,10.0,East,9.2,-,N/A,,Partly Cloudy,80,2013-09-27 04:58:00
1:48 AM,66.2,60.8,83,30.05,10.0,ENE,10.4,-,N/A,,Mostly Cloudy,70,2013-09-27 05:48:00
1:53 AM,64.4,60.8,88,30.05,10.0,ENE,12.7,-,N/A,,Mostly Cloudy,70,2013-09-27 05:53:00
1:58 AM,65.1,59.7,83,30.07,10.0,ENE,12.7,-,N/A,,Scattered Clouds,60,2013-09-27 05:58:00
2:13 AM,66.2,60.8,83,30.05,10.0,NE,11.5,-,N/A,,Mostly Cloudy,50,2013-09-27 06:13:00
2:18 AM,66.2,60.8,83,30.05,10.0,ENE,11.5,-,N/A,,Mostly Cloudy,60,2013-09-27 06:18:00
2:23 AM,66.2,60.8,83,30.05,10.0,ENE,12.7,-,N/A,,Scattered Clouds,60,2013-09-27 06:23:00
2:58 AM,64.0,58.8,83,30.07,10.0,ENE,10.4,-,N/A,,Clear,70,2013-09-27 06:58:00
3:58 AM,62.2,59.2,90,30.07,10.0,NE,8.1,-,N/A,,Partly Cloudy,50,2013-09-27 07:58:00
4:58 AM,63.3,58.8,85,30.09,10.0,NE,8.1,-,N/A,,Partly Cloudy,40,2013-09-27 08:58:00
5:58 AM,64.4,58.8,82,30.10,10.0,NE,10.4,-,N/A,,Mostly Cloudy,50,2013-09-27 09:58:00
6:58 AM,64.9,57.9,78,30.12,10.0,NE,13.8,-,N/A,,Scattered Clouds,50,2013-09-27 10:58:00
7:58 AM,65.5,57.7,76,30.14,10.0,NE,17.3,-,N/A,,Clear,50,2013-09-27 11:58:00
8:58 AM,68.0,55.0,63,30.16,10.0,NE,15.0,-,N/A,,Clear,50,2013-09-27 12:58:00
9:58 AM,68.5,54.0,60,30.18,10.0,NE,17.3,-,N/A,,Clear,50,2013-09-27 13:58:00
10:58 AM,69.6,54.9,59,30.19,10.0,NE,13.8,-,N/A,,Clear,40,2013-09-27 14:58:00
11:23 AM,69.8,55.4,60,30.17,10.0,NE,15.0,-,N/A,Rain,Light Rain,50,2013-09-27 15:23:00
11:33 AM,69.8,55.4,60,30.17,10.0,NNE,15.0,-,N/A,,Partly Cloudy,30,2013-09-27 15:33:00
11:58 AM,71.1,55.0,57,30.19,10.0,NE,11.5,-,0.00,,Clear,40,2013-09-27 15:58:00
12:07 PM,71.6,53.6,53,30.17,10.0,ENE,15.0,21.9,N/A,,Clear,70,2013-09-27 16:07:00
12:58 PM,72.9,53.1,50,30.18,10.0,East,16.1,-,N/A,,Partly Cloudy,80,2013-09-27 16:58:00
1:12 PM,73.4,53.6,50,30.16,10.0,NNE,11.5,-,N/A,,Scattered Clouds,30,2013-09-27 17:12:00
1:58 PM,72.3,56.8,58,30.17,10.0,NE,13.8,20.7,N/A,,Clear,40,2013-09-27 17:58:00
2:58 PM,71.4,55.0,56,30.16,10.0,NE,11.5,-,N/A,,Partly Cloudy,40,2013-09-27 18:58:00
3:58 PM,70.5,54.3,56,30.16,10.0,ENE,13.8,-,N/A,,Mostly Cloudy,70,2013-09-27 19:58:00
4:58 PM,69.3,54.5,59,30.17,10.0,ENE,13.8,-,N/A,,Overcast,60,2013-09-27 20:58:00
5:58 PM,67.8,55.2,64,30.17,10.0,ENE,15.0,-,N/A,,Mostly Cloudy,70,2013-09-27 21:58:00
6:58 PM,65.8,54.9,68,30.18,10.0,ENE,15.0,-,N/A,,Clear,70,2013-09-27 22:58:00
7:58 PM,65.1,54.9,69,30.19,10.0,ENE,16.1,-,N/A,,Scattered Clouds,70,2013-09-27 23:58:00
8:58 PM,64.6,55.0,71,30.20,10.0,ENE,15.0,-,N/A,,Clear,60,2013-09-28 00:58:00
9:58 PM,63.9,56.8,78,30.21,10.0,ENE,16.1,-,N/A,,Clear,70,2013-09-28 01:58:00
10:58 PM,63.9,56.5,77,30.22,10.0,ENE,13.8,-,N/A,,Clear,70,2013-09-28 02:58:00
11:58 PM,63.9,56.1,76,30.22,10.0,ENE,16.1,-,N/A,,Clear,70,2013-09-28 03:58:00